Weather reports worldwide

Advertisment
Lerida, Spain (8171): temperature & dewpoint: 11.06.2019 20:00:00 - 17.06.2019 20:00:00 (CEST)Lerida, Spain (8171): wind speed: 11.06.2019 20:00:00 - 17.06.2019 20:00:00 (CEST)Lerida, Spain (8171): wind direction: 11.06.2019 20:00:00 - 17.06.2019 20:00:00 (CEST)Lerida, Spain (8171): reduced air pressure: 11.06.2019 20:00:00 - 17.06.2019 20:00:00 (CEST)Lerida, Spain (8171): visibility: 11.06.2019 20:00:00 - 17.06.2019 20:00:00 (CEST)Lerida, Spain (8171): precipitation: 11.06.2019 20:00:00 - 17.06.2019 20:00:00 (CEST)
Date & Time tt [°C] td [°C] ff [km/h] ff [kn] dd ppp [hPa] vv [km] rr [mm]
17.06.2019 20:00:00 - - - - - - - -
17.06.2019 19:00:00 34,1 13,5 11 6 SSW 1011,1 19 0,0
17.06.2019 18:00:00 35,0 4,5 5 3 W 1011,3 20 0,0
17.06.2019 17:00:00 34,4 6,7 8 4 WSW 1012,0 20 -
17.06.2019 16:00:00 33,7 4,4 4 2 SW 1012,7 17 0,0
17.06.2019 15:00:00 32,8 4,5 8 4 SSW 1013,5 20 0,0
17.06.2019 14:00:00 31,0 8,7 8 4 S 1014,4 40 -
17.06.2019 13:00:00 29,3 10,4 8 4 SSE 1015,2 20 0,0
17.06.2019 12:00:00 27,4 10,6 4 2 ESE 1015,8 14 0,0
17.06.2019 11:00:00 24,7 10,6 4 2 E 1016,5 30 -
17.06.2019 10:00:00 22,8 11,2 5 3 ESE 1016,9 20 0,0
17.06.2019 09:00:00 19,6 11,1 5 3 NE 1017,3 20 0,0
17.06.2019 08:00:00 17,0 11,5 4 2 NE 1017,5 20 -
17.06.2019 07:00:00 14,2 10,6 8 4 NE 1017,1 19 0,0
17.06.2019 06:00:00 14,8 10,6 9 5 NE 1016,9 20 0,0
17.06.2019 05:00:00 15,4 11,0 9 5 NE 1016,9 20 -
17.06.2019 04:00:00 15,8 11,2 8 4 NNE 1017,0 20 0,0
17.06.2019 03:00:00 16,8 11,5 9 5 NNE 1017,2 20 0,0
17.06.2019 02:00:00 17,5 11,3 4 2 ENE 1017,2 20 -
17.06.2019 01:00:00 18,7 11,7 8 4 NE 1017,0 20 0,0
17.06.2019 00:00:00 20,2 11,7 5 3 NE 1017,1 20 0,0
16.06.2019 23:00:00 21,5 11,2 5 3 WSW 1016,7 20 -
16.06.2019 22:00:00 22,8 11,8 9 5 SW 1016,0 20 0,0
16.06.2019 21:00:00 25,1 12,3 8 4 S 1015,4 20 0,0
16.06.2019 20:00:00 27,3 12,1 15 8 SSW - 20 -
16.06.2019 19:00:00 30,0 11,0 8 4 WSW 1014,8 20 0,0
16.06.2019 18:00:00 30,6 5,1 8 4 NW 1015,0 20 0,0
16.06.2019 17:00:00 30,2 4,7 5 3 NNW 1015,7 20 -
16.06.2019 16:00:00 29,7 7,0 8 4 S 1016,5 20 0,0
16.06.2019 15:00:00 29,0 7,5 9 5 SW 1017,5 19 0,0
16.06.2019 14:00:00 27,4 7,3 8 4 WSW 1018,6 20 -
16.06.2019 13:00:00 25,9 9,3 8 4 SW 1019,5 19 0,0
16.06.2019 12:00:00 24,2 10,1 8 4 SW 1020,1 20 0,0
16.06.2019 11:00:00 22,7 12,6 5 3 SW 1020,8 20 -
16.06.2019 10:00:00 20,5 13,0 4 2 WSW 1021,1 20 0,0
16.06.2019 09:00:00 18,2 12,9 5 3 ENE 1021,2 18 0,0
16.06.2019 08:00:00 16,2 12,6 5 3 NE 1021,1 15 -
16.06.2019 07:00:00 14,1 12,3 5 3 NNE 1020,9 10 0,0
16.06.2019 06:00:00 14,5 12,4 5 3 NNE 1020,7 12 0,0
16.06.2019 05:00:00 14,7 12,2 5 3 NE 1020,6 13 -
16.06.2019 04:00:00 15,2 12,0 5 3 NNE 1020,8 17 0,0
16.06.2019 03:00:00 15,8 11,4 5 3 NE 1020,8 18 0,0
16.06.2019 02:00:00 17,2 12,7 8 4 WSW 1020,3 17 -
16.06.2019 01:00:00 17,8 11,1 9 5 SSW 1019,9 20 0,0
16.06.2019 00:00:00 19,2 6,6 8 4 S 1019,1 20 0,0
15.06.2019 23:00:00 21,6 5,5 8 4 W 1018,0 20 -
15.06.2019 22:00:00 22,9 4,4 8 4 W 1016,9 20 0,0
15.06.2019 21:00:00 25,6 2,9 11 6 WNW 1016,3 20 0,0
15.06.2019 20:00:00 28,0 1,5 13 7 WNW 1015,5 20 -
15.06.2019 19:00:00 28,8 3,6 11 6 WNW 1015,2 20 0,0
15.06.2019 18:00:00 29,1 4,5 16 9 W 1015,2 20 0,0
15.06.2019 17:00:00 28,9 5,7 16 9 W 1015,4 20 -
15.06.2019 16:00:00 28,3 5,2 13 7 W 1015,5 19 0,0
15.06.2019 15:00:00 27,7 5,3 16 9 W 1015,9 18 0,0
15.06.2019 14:00:00 26,5 7,5 16 9 W 1016,4 45 -
15.06.2019 13:00:00 24,5 10,0 16 9 WSW 1016,8 20 0,0
15.06.2019 12:00:00 22,9 11,0 15 8 WSW 1017,1 20 0,0
15.06.2019 11:00:00 20,9 11,0 15 8 WSW 1017,6 35 -
15.06.2019 10:00:00 19,0 10,8 15 8 WSW 1017,8 19 0,0
15.06.2019 09:00:00 17,9 11,5 13 7 W 1017,5 20 0,0
15.06.2019 08:00:00 15,7 11,7 9 5 SSW 1016,9 25 -
15.06.2019 07:00:00 14,8 11,4 9 5 W 1016,4 20 0,0
15.06.2019 06:00:00 15,9 11,5 9 5 WSW 1015,6 20 0,0
15.06.2019 05:00:00 15,1 12,0 4 2 SW 1014,8 17 -
15.06.2019 04:00:00 16,4 12,4 4 2 W 1013,8 19 0,0
15.06.2019 03:00:00 17,6 12,5 4 2 WNW 1013,2 20 0,0
15.06.2019 02:00:00 18,9 12,6 8 4 NNE 1012,5 20 -
15.06.2019 01:00:00 19,3 13,0 9 5 NNE 1012,3 20 0,0
15.06.2019 00:00:00 20,9 13,3 8 4 NNE 1011,7 20 0,0
14.06.2019 23:00:00 22,1 13,2 5 3 S 1011,3 20 -
14.06.2019 22:00:00 24,2 13,1 5 3 SSE 1010,3 20 0,0
14.06.2019 21:00:00 26,4 11,3 5 3 E 1009,1 20 0,0
14.06.2019 20:00:00 28,4 10,6 5 3 ENE 1008,4 20 -
14.06.2019 19:00:00 28,9 11,0 8 4 ESE 1008,4 20 0,0
14.06.2019 18:00:00 29,1 10,7 8 4 SSW 1008,5 20 0,0
14.06.2019 17:00:00 28,4 10,6 8 4 WSW 1008,8 20 -
14.06.2019 16:00:00 26,9 9,7 8 4 W 1009,3 20 0,0
14.06.2019 15:00:00 24,4 9,5 11 6 WSW 1009,8 20 0,0
14.06.2019 14:00:00 24,6 9,3 15 8 WSW 1010,3 19 -
14.06.2019 13:00:00 25,2 9,9 13 7 WSW 1009,8 20 0,0
14.06.2019 12:00:00 22,4 9,9 9 5 SSW 1010,1 20 0,0
14.06.2019 11:00:00 21,8 8,7 11 6 E 1009,7 19 -
14.06.2019 10:00:00 19,2 9,4 4 2 SSW 1010,6 20 0,0
14.06.2019 09:00:00 16,4 8,9 8 4 SSW 1011,1 20 0,0
14.06.2019 08:00:00 14,7 8,9 5 3 W 1010,3 19 -
14.06.2019 07:00:00 14,2 8,2 9 5 WSW 1010,1 20 0,0
14.06.2019 06:00:00 14,5 7,8 9 5 SW 1009,6 20 0,0
14.06.2019 05:00:00 15,6 6,8 2 1 NW 1008,7 20 -
14.06.2019 04:00:00 15,9 6,0 5 3 NNE 1010,1 20 0,0
14.06.2019 03:00:00 15,8 5,4 8 4 NE 1011,6 20 0,0
14.06.2019 02:00:00 16,9 4,6 11 6 ENE 1012,1 20 -
14.06.2019 01:00:00 16,6 5,2 11 6 ENE 1012,4 20 0,0
14.06.2019 00:00:00 17,7 5,3 11 6 ENE 1012,7 20 0,0
13.06.2019 23:00:00 19,2 8,2 11 6 ENE 1012,0 20 -
13.06.2019 22:00:00 21,8 6,8 11 6 E 1011,2 20 0,0
13.06.2019 21:00:00 23,0 5,9 16 9 E 1010,7 20 0,0
13.06.2019 20:00:00 23,6 6,4 18 10 ESE 1010,4 20 -
13.06.2019 19:00:00 24,5 7,6 16 9 E 1010,0 20 0,0
13.06.2019 18:00:00 24,5 6,3 16 9 SSE 1010,1 20 0,0
13.06.2019 17:00:00 26,8 7,8 16 9 ESE 1010,1 20 -
13.06.2019 16:00:00 27,6 10,3 8 4 ESE 1010,4 20 0,0
13.06.2019 15:00:00 26,7 10,0 9 5 E - 20 0,0
13.06.2019 14:00:00 25,6 10,6 11 6 NE 1012,1 30 -
13.06.2019 13:00:00 24,6 10,8 8 4 ESE 1013,2 20 0,0
13.06.2019 12:00:00 23,4 11,1 8 4 ESE 1013,9 20 0,0
13.06.2019 11:00:00 22,1 10,6 9 5 ENE 1014,3 25 -
13.06.2019 10:00:00 18,8 9,8 11 6 ENE 1014,5 20 0,0
13.06.2019 09:00:00 15,0 9,4 11 6 NE 1015,0 20 0,0
13.06.2019 08:00:00 13,3 8,8 11 6 NE 1014,7 20 -
13.06.2019 07:00:00 10,9 7,6 13 7 NE 1014,8 20 0,0
13.06.2019 06:00:00 10,7 6,8 11 6 NNE 1014,8 20 0,0
13.06.2019 05:00:00 10,9 6,8 11 6 NE 1014,6 20 -
13.06.2019 04:00:00 11,3 7,2 9 5 NE 1014,6 20 0,0
13.06.2019 03:00:00 12,1 7,2 8 4 NE 1014,9 20 0,0
13.06.2019 02:00:00 13,4 7,2 9 5 NE 1015,0 20 -
13.06.2019 01:00:00 14,4 6,7 5 3 NE 1015,1 20 0,0
13.06.2019 00:00:00 16,7 5,9 5 3 NNE 1014,8 20 0,0
12.06.2019 23:00:00 16,7 3,7 5 3 S 1014,2 20 -
12.06.2019 22:00:00 18,8 3,4 9 5 S 1013,2 20 0,0
12.06.2019 21:00:00 21,5 2,7 5 3 SE 1012,6 20 0,0
12.06.2019 20:00:00 22,9 2,4 8 4 E 1012,3 20 -
12.06.2019 19:00:00 23,5 2,3 4 2 E 1012,1 20 0,0
12.06.2019 18:00:00 23,4 2,8 8 4 E 1012,7 20 0,0
12.06.2019 17:00:00 22,9 2,9 8 4 E 1013,4 20 -
12.06.2019 16:00:00 23,2 2,1 5 3 SE 1013,8 20 0,0
12.06.2019 15:00:00 22,1 3,2 9 5 WNW 1014,5 19 0,0
12.06.2019 14:00:00 21,3 2,5 11 6 W 1015,1 20 -
12.06.2019 13:00:00 19,7 3,4 8 4 WSW 1015,8 20 0,0
12.06.2019 12:00:00 18,3 4,5 8 4 W 1016,3 20 0,0
12.06.2019 11:00:00 16,2 6,0 9 5 SW 1016,7 20 -
12.06.2019 10:00:00 15,3 7,1 8 4 SSE 1016,7 20 0,0
12.06.2019 09:00:00 12,8 7,0 5 3 S 1016,6 20 0,0
12.06.2019 08:00:00 10,0 6,5 4 2 WSW 1016,3 20 -
12.06.2019 07:00:00 7,2 5,3 5 3 WSW 1016,0 20 0,0
12.06.2019 06:00:00 7,0 5,0 4 2 WSW 1015,6 20 0,0
12.06.2019 05:00:00 7,7 5,3 4 2 WNW 1015,1 20 -
12.06.2019 04:00:00 8,7 5,8 11 6 W 1015,1 20 0,0
12.06.2019 03:00:00 9,4 5,6 8 4 W 1015,0 20 0,0
12.06.2019 02:00:00 10,1 5,5 5 3 WSW 1014,7 20 -
12.06.2019 01:00:00 11,3 5,2 8 4 WSW 1014,8 20 0,0
12.06.2019 00:00:00 12,3 5,0 5 3 SSW 1014,6 20 0,0
11.06.2019 23:00:00 13,3 5,4 13 7 SSW 1014,1 20 -
11.06.2019 22:00:00 15,6 4,9 11 6 W - 20 0,0
11.06.2019 21:00:00 18,0 4,5 16 9 W 1012,2 20 0,0
11.06.2019 20:00:00 20,4 4,4 21 11 W 1011,4 20 -

tt = temperature
td = dewpoint
ff = wind speed
dd = wind direction
ppp = reduced air pressure
vv = visibility
rr = precipitation

Next stations